This is the latest recevied weather packets stored in our database for station/object N5ZP. If no packets are shown the sender has not sent any weather packets the latest 1 day(s).
| Time | Temp. | Humidity | Pressure | Rain* | Wind** | Luminosity | Snow |
|---|---|---|---|---|---|---|---|
| 1777991800 | 23.89° C | 76% | 1001.6 hPa | 0 mm | 0.89 m/s, 208° | 226 W/m² | - |
| 1777991497 | 23.89° C | 77% | 1001.7 hPa | 0 mm | 1.79 m/s, 192° | 208 W/m² | - |
| 1777991194 | 23.89° C | 76% | 1001.6 hPa | 0 mm | 0.89 m/s, 213° | 198 W/m² | - |
| 1777990892 | 23.89° C | 76% | 1001.5 hPa | 0 mm | 1.34 m/s, 219° | 222 W/m² | - |
| 1777990590 | 23.89° C | 76% | 1001.4 hPa | 0 mm | 1.79 m/s, 184° | 312 W/m² | - |
| 1777990286 | 23.89° C | 77% | 1001.2 hPa | 0 mm | 2.24 m/s, 204° | 302 W/m² | - |
| 1777989983 | 23.33° C | 77% | 1001.4 hPa | 0 mm | 2.24 m/s, 203° | 241 W/m² | - |
| 1777989680 | 23.33° C | 77% | 1001.6 hPa | 0 mm | 1.34 m/s, 201° | 174 W/m² | - |
| 1777989375 | 23.33° C | 77% | 1001.5 hPa | 0 mm | 3.58 m/s, 198° | 214 W/m² | - |
| 1777989073 | 23.89° C | 76% | 1001.7 hPa | 0 mm | 1.34 m/s, 205° | 199 W/m² | - |
| 1777988768 | 23.89° C | 77% | 1001.8 hPa | 0 mm | 0.89 m/s, 204° | 191 W/m² | - |
| 1777988466 | 23.33° C | 77% | 1001.2 hPa | 0 mm | 1.79 m/s, 256° | 208 W/m² | - |
| 1777988163 | 22.78° C | 78% | 1001.2 hPa | 0 mm | 1.34 m/s, 214° | 258 W/m² | - |
| 1777987858 | 22.22° C | 81% | 1001.2 hPa | 0 mm | 1.34 m/s, 212° | 153 W/m² | - |
| 1777987555 | 22.22° C | 81% | 1001 hPa | 0 mm | 1.34 m/s, 218° | 110 W/m² | - |
| 1777987253 | 22.22° C | 81% | 1000.9 hPa | 0 mm | 1.34 m/s, 144° | 88 W/m² | - |
| 1777986949 | 22.22° C | 81% | 1001.2 hPa | 0 mm | 1.34 m/s, 209° | 87 W/m² | - |
| 1777986647 | 22.22° C | 81% | 1001 hPa | 0 mm | 1.79 m/s, 167° | 108 W/m² | - |
| 1777986345 | 21.67° C | 82% | 1000.9 hPa | 0 mm | 1.34 m/s, 197° | 112 W/m² | - |
| 1777986043 | 21.67° C | 82% | 1000.9 hPa | 0 mm | 1.34 m/s, 191° | 95 W/m² | - |
| 1777985739 | 21.67° C | 82% | 1001 hPa | 0 mm | 0.89 m/s, 200° | 77 W/m² | - |
| 1777985436 | 21.11° C | 83% | 1001 hPa | 0 mm | 1.34 m/s, 213° | 69 W/m² | - |
| 1777985133 | 21.11° C | 83% | 1000.8 hPa | 0 mm | 0.89 m/s, 225° | 64 W/m² | - |
| 1777984829 | 21.11° C | 83% | 1000.9 hPa | 0 mm | 2.24 m/s, 199° | 61 W/m² | - |
| 1777984526 | 21.11° C | 83% | 1001 hPa | 0 mm | 0.89 m/s, 215° | 52 W/m² | - |
* Rain latest hour (hover to see other rain measurements)
** Current wind speed in m/s (hover to see current wind gust speed)